Regional Weather Roundup
Issued by NWS Grand Forks, ND

Home | Current Version | Previous Version | Text Only | Print | Product List | Glossary On
Versions: 1 2 3 4 5 6 7 8 9 10 11 12 13 14 15 16 17 18 19 20 21 22 23 24 25 26 27 28 29 30 31 32 33 34 35 36 37 38 39 40 41 42 43 44 45 46 47 48 49 50
000
ASUS43 KFGF 282110
RWRFGF
PRAIRIE TO PINES  WEATHER ROUNDUP
NATIONAL WEATHER SERVICE EASTERN NORTH DAKOTA/GRAND FORKS ND
300 PM CST SAT FEB 28 2015

 **SATELLITE DATA USED TO AUGMENT SKY COVER AT AUTOMATED STATIONS**
 *****  WEATHER ACROSS EASTERN NORTH DAKOTA  *****

CITY           SKY/WX    TMP DP  RH WIND       PRES   REMARKS
GRAND FORKS    LGT SNOW  21  14  73 SW17G25   30.11F WCI   7
GRAND FRKS AFB MIX PCPN  23  12  63 SW16      30.10S WCI  10
GRAND FRKS NWS   N/A     23 N/A N/A S13         N/A  WCI  11
DEVILS LAKE    MOSUNNY   16   7  67 W17       30.07S WCI   0
FARGO          CLOUDY    27  14  58 S24G31    30.15F WCI  12
WAHPETON ARPT  CLOUDY    25  12  58 S18       30.19S WCI  11
$$

 ***** WEATHER ACROSS CENTRAL AND WESTERN NORTH DAKOTA  *****

CITY           SKY/WX    TMP DP  RH WIND       PRES   REMARKS
BISMARCK       SUNNY     20   5  52 NW13G21   30.14S WCI   7
MINOT          MOSUNNY   12   2  64 W21       30.11F WCI  -7
JAMESTOWN      CLOUDY    21  11  65 W12       30.08S WCI   9
MINOT AFB      FLURRIES  11   6  80 NW20      30.11S WCI  -8
GARRISON         N/A     12   3  67 NW21      30.12F WCI  -7
WILLISTON      LGT SNOW  14   5  67 NW13      30.16F WCI   0
DICKINSON      CLOUDY    19   3  49 W21G31    30.07F WCI   3
HETTINGER      CLOUDY    18   4  54 W22       30.11S WCI   1
$$

 *****  OTHER AIRPORT OBSERVATIONS IN OUR AREA  *****

CITY           SKY/WX    TMP DP  RH WIND       PRES   REMARKS
WALHALLA         N/A     19  10  68 W8        30.08S WCI   9
GRAFTON AIRPOR NOT AVBL
VALLEY CITY AR FLURRIES  23  16  74 SW16G24   30.09S WCI  10
CANDO          FAIR      14   7  73 W17       30.07S WCI  -3
CAVALIER APRT  MOCLDY    21  10  63 SW9       30.08F WCI  11
GWINNER        MOCLDY    27  16  63 SW23      30.14S WCI  12
SHEYENNE NWR     N/A     27  13  54 SW16      29.95S WCI  15
ROLLA          FAIR      14   7  73 NW12      30.03S WCI   0
 ***** THE ABOVE OBSERVATIONS ARE NON NWS ARE NOT QUALITY
       CONTROLLED AND MAY MIS-REPORT RAIN FOR SNOW...
$$

  *****  WEATHER ACROSS NORTHERN MINNESOTA  *****

CITY           SKY/WX    TMP DP  RH WIND       PRES   REMARKS
FLAG ISLAND    MOSUNNY   16   9  73 S9        30.10F WCI   4
WARROAD        MOSUNNY   25  12  58 S9G17     30.10F WCI  15
ROSEAU         PTSUNNY   23  12  63 S16       30.10F WCI  10
HALLOCK        PTSUNNY   19  12  73 S18       30.09F WCI   4
THF RVR FALLS  CLOUDY    21  16  79 S17G24    30.11F WCI   7
BAUDETTE       CLOUDY    23   6  48 S16       30.11F WCI  10
WASKISH        MOSUNNY   27   5  39 S6G23     30.15F WCI  20
CROOKSTON      LGT SNOW  25  18  74 SW22      30.13F WCI  10
STEPHEN NDAWN    N/A     21  12  68 SW20        N/A  WCI   6
GREENBUSH NDAW   N/A     21  16  79 MISG        N/A
$$
  *****  WEATHER ACROSS CENTRAL AND WEST MINNESOTA  *****

CITY           SKY/WX    TMP DP  RH WIND       PRES   REMARKS
FOSSTON        CLOUDY    23  12  63 S21G30    30.13F WCI   8
BEMIDJI        PTSUNNY   24   4  42 S14G20    30.14F WCI  11
PARK RAPIDS    CLOUDY    22   7  52 S20       30.17F WCI   7
ELBOW LAKE     CLOUDY    22  13  69 S22G31    30.21F WCI   6
WADENA         MOSUNNY   19   9  63 S15G21    30.20F WCI   5
DETROIT LAKES  MOSUNNY   25  14  63 S18G25    30.17F WCI  11
MOORHEAD       CLOUDY    25  12  58 S20G25    30.17F WCI  11
FERGUS FALLS   CLOUDY    23   9  54 SW25      30.24F WCI   7
MORRIS MN      PTSUNNY   25  12  58 S21G26    30.22F WCI  10
STAPLES        CLOUDY    21   7  53 S20       30.23F WCI   6
$$
  *****  WEATHER ELSEWHERE ACROSS MINNESOTA  *****

CITY           SKY/WX    TMP DP  RH WIND       PRES   REMARKS
DULUTH         SUNNY     21   1  41 SW22G30   30.27F WCI   5
INTRNTL FALLS  PTSUNNY   26   0  32 SW14G22   30.15F WCI  14
ELY            NOT AVBL
CLOQUET        SUNNY     19   0  42 S14G22    30.29F WCI   6
WHEATON        NOT AVBL
BRAINERD       PTSUNNY   21   3  45 SW20G30   30.26F WCI   6
HIBBING        SUNNY     23  -2  33 SW13G22   30.23F WCI  11
ALEXANDRIA     CLOUDY    20  10  65 S15G28    30.23F WCI   6
SAINT CLOUD    CLOUDY    21   4  47 S20       30.32F WCI   6
MINNEAPOLIS    MOSUNNY   19   3  49 S18       30.41F WCI   4
$$

  *****  WEATHER ACROSS SOUTH DAKOTA  *****

CITY           SKY/WX    TMP DP  RH WIND       PRES   REMARKS
SIOUX FALLS    PTSUNNY   25  13  60 S20G28    30.23F WCI  11
BROOKINGS      NOT AVBL
WATERTOWN      SUNNY     23  12  62 S21G26    30.15F WCI   8
HURON          SUNNY     30  14  51 S13G22    30.15F WCI  20
SISSETON         N/A     25  14  63 SW16      30.17F WCI  12
ABERDEEN       MOSUNNY   28  14  55 SW16      30.14F WCI  16
MITCHELL       CLOUDY    32  10  40 S18G25    30.19F WCI  20
PIERRE         SUNNY     32   6  33 NW20G28   30.11F WCI  20
MOBRIDGE       CLOUDY    26  14  60 NW17      30.09S WCI  13
RAPID CITY     SUNNY     22  12  65 N21       30.08F WCI   6
$$

  *****  SOME WEATHER IN NEARBY STATES *****

CITY           SKY/WX    TMP DP  RH WIND       PRES   REMARKS
GLASGOW MT     SUNNY     22   1  40 W12G17    30.15F WCI  10
GREAT FALLS MT PTSUNNY   21   8  57 W9        30.14F WCI  11
CHEYENNE WY    CLOUDY    20  10  65 NE8       29.90F WCI  10
SCOTTSBLUFF NE SUNNY     32  11  41 E5        30.02F
OMAHA NE       LGT SNOW  22  16  78 S13       30.39F FOG     WCI  10
DES MOINES IA  LGT SNOW  23  12  62 S10       30.43F WCI  12
DAVENPORT IA   SUNNY     18   0  45 S7        30.54F WCI   9
CHICAGO IL     MOSUNNY   20   0  41 SE8       30.57F WCI  10
EAU CLAIRE WI  SUNNY     17  -1  45 S15       30.45F WCI   2
LA CROSSE WI   SUNNY     18   0  45 S8        30.52F WCI   8
$$

  *****  SOME NATIONAL WEATHER *****

CITY           SKY/WX    TMP DP  RH WIND       PRES   REMARKS
LA GUARDIA NY  MOSUNNY   29   0  28 CALM      30.74F
RALEIGH NC     PTSUNNY   37  13  37 E9        30.69F
ATLANTA GA     PTSUNNY   56  28  34 E12       30.47F
NEW ORLEANS LA MOSUNNY   62  45  53 E12       30.30F
OKLAHOMA CITY  FRZ DRZL  27  21  80 NE3       30.31F
ALBUQUERQUE NM PTSUNNY   36  25  64 CALM      29.90F
SALT LAKE CITY CLOUDY    44  21  40 SE10      29.68F
LOS ANGELES CA PTSUNNY   61  46  57 SW16      29.86F
BOISE ID       CLOUDY    41  33  73 NW9       29.85S
SEATTLE WA     MOSUNNY   51  25  36 N17G23    30.19S
$$

*** WEATHER ACROSS MANITOBA...SASKATCHEWAN AND ONTARIO ***
                ***ONTARIO***

CITY           SKY/WX    TMP DP  RH WIND       PRES   REMARKS
GERALDTON      CLOUDY    21  -6  30 S16G25    30.22F WCI   7
THUNDER BAY    CLOUDY    23   5  46 SW12G18   30.29F WCI  12
SIOUX LOOKOUT  CLOUDY    23   3  42 SW8       30.10F WCI  14
TORONTO        SUNNY     23   5  46 W12       30.68F WCI  12
BIG TROUT LK   CLOUDY    16   7  67 W14G22    29.97F WCI   1
PICKLE LAKE    PTSUNNY   19   0  42 SW13G18   30.06F WCI   7
DRYDEN         MOSUNNY   25   1  36 SW16G28   30.09F WCI  12
KENORA         CLOUDY    19   3  49 S13       30.08F WCI   7
$$
                *** MANITOBA***

CITY           SKY/WX    TMP DP  RH WIND       PRES   REMARKS
BRANDON        MOSUNNY    9   0  66 W17       30.08S WCI -10
DAUPHIN        SUNNY     12   3  67 W22G28    30.04F WCI  -7
ISLAND LAKE    PTSUNNY   19   5  53 W14G23    29.95F WCI   6
PILOT MOUND    NOT AVBL
THE PAS        MOSUNNY   18   3  53 W16       29.95F WCI   3
THOMPSON       FLURRIES  19   7  58 SW18      29.83S WCI   4
WINNIPEG       LGT SNOW  14   7  73 S10       30.09F WCI   1
LYNN LAKE      CLOUDY    16   7  67 NW12      29.84R WCI   3
CHURCHILL      MOSUNNY    0  -8  71 NW21      29.82R WCI -23
GILLAM         PTSUNNY   19   7  58 W16G24    29.79S WCI   5
$$
                ***SASKATCHEWAN***

CITY           SKY/WX    TMP DP  RH WIND       PRES   REMARKS
ESTEVAN        PTSUNNY    9   1  72 NW16G22   30.13S WCI  -9
KINDERSLEY     FLURRIES  16  12  86 W14       30.09S WCI   1
LLOYDMINSTER   FLURRIES  19  16  86 W17       30.04S WCI   4
PRINCE ALBERT  FLURRIES  18  10  73 NW12G18   29.99F WCI   5
REGINA         PTSUNNY   10   5  79 W15       30.10F WCI  -6
YORKTON        SUNNY     12   3  67 W14       30.03F WCI  -3
N. BATTLEFORD  LGT SNOW  16  10  79 W13       30.07F WCI   2
LA RONGE       FLURRIES  19  10  68 NW13      29.95S WCI   7
SASKATOON      FLURRIES  14   7  73 W10       30.07F WCI   1
SWIFT CURRENT  MOSUNNY   18   9  68 W18G25    30.05F WCI   2
$$
NOTE: THESE ARE AUTOMATED STATIONS WITH LIMITED QUALITY CONTROL
      "FAIR" INDICATES FEW OR NO CLOUDS BELOW 12,000 FEET WITH NO
      SIGNIFICANT WEATHER AND/OR OBSTRUCTIONS TO VISIBILITY.
      SKY/WX - SKY CONDITION AND SIGNIFICANT WEATHER.
      TMP - AIR TEMPERATURE.    DP   - DEWPOINT TEMPERATURE.
      RH  - RELATIVE HUMIDITY.  PRES - PRESSURE.
      HX  - HEAT INDEX.         WCI  - WIND CHILL INDEX.
$


USA.gov is the U.S. government's official web portal to all federal, state and local government web resources and services.